STARLETTE 1 07646U 75010A 21017.28674889 -.00000139 00000-0 45726-5 0 9992 2 07646 49.8252 347.4895 0205794 12.4984 348.0906 13.82308424321089 LAGEOS 1 1 08820U 76039A 21017.44883455 .00000007 00000-0 00000-0 0 9992 2 08820 109.8141 222.2197 0044924 4.6265 51.6215 6.38664683787210 EGS (AJISAI) 1 16908U 86061A 21017.85380428 -.00000107 00000-0 -66475-4 0 9996 2 16908 50.0101 104.4363 0011442 189.3007 290.9403 12.44493120234640 LAGEOS 2 1 22195U 92070B 21017.81215508 -.00000009 00000-0 00000+0 0 9997 2 22195 52.6632 75.6789 0137406 43.2111 279.4866 6.47293693667673 STELLA 1 22824U 93061B 21017.84031848 -.00000049 00000-0 -91518-6 0 9999 2 22824 98.9742 20.1594 0005999 198.5492 262.5860 14.27382966422982 LARES 1 38077U 12006A 21017.83425421 -.00000042 00000-0 -21807-4 0 9994 2 38077 69.4938 68.0315 0006781 117.8727 242.2987 12.54930918409216